Location: Unspecified
(0.0000°N, 0.0000°E)
Time: 22:20:38
(UTC+00:00)

Transit 2A - All Passes

Search period start: 25 April 2017 00:00
Search period end: 05 May 2017 00:00
Orbit: 602 x 958 km, 66.7° (Epoch: 24 April)

Date Brightness Start Highest point End Pass type
(mag) Time Alt. Az. Time Alt. Az. Time Alt. Az.
25 Apr - 07:58:40 10° NNE 08:02:32 20° ENE 08:06:40 10° ESE daylight
25 Apr - 09:40:45 10° NW 09:45:26 29° WSW 09:50:31 10° S daylight
25 Apr - 20:33:16 10° S 20:38:29 59° ESE 20:43:10 10° NNE night (unlit)
26 Apr - 07:26:45 10° NE 07:28:37 12° ENE 07:30:33 10° E daylight
26 Apr - 09:06:13 10° NW 09:11:24 48° WSW 09:17:06 10° S daylight
26 Apr - 19:59:43 10° S 20:04:28 33° ESE 20:08:48 10° NE night (unlit)
26 Apr - 21:45:05 10° W 21:47:14 13° WNW 21:49:19 10° NW night (unlit)
27 Apr - 08:32:01 10° NNW 08:37:24 79° WSW 08:43:22 10° SSE daylight
27 Apr - 19:26:38 10° SSE 19:30:25 20° ESE 19:33:56 10° ENE night (unlit)
27 Apr - 21:09:24 10° WSW 21:13:20 22° WNW 21:17:00 10° NNW night (unlit)
28 Apr - 07:58:08 10° N 08:03:26 63° ENE 08:09:18 10° SSE daylight
28 Apr - 18:54:43 10° SE 18:56:19 11° ESE 18:57:52 10° E visible
28 Apr - 20:34:38 10° SW 20:39:26 38° WNW 20:43:48 10° N visible
29 Apr - 07:24:34 10° N 07:29:31 38° ENE 07:34:56 10° SE daylight
29 Apr - 09:09:15 10° WNW 09:12:37 16° WSW 09:16:10 10° SSW daylight
29 Apr - 20:00:19 10° SSW 20:05:30 69° WNW 20:10:11 10° NNE visible
30 Apr - 06:51:23 10° NNE 06:55:37 23° ENE 07:00:07 10° ESE daylight
30 Apr - 08:33:59 10° NW 08:38:33 26° WSW 08:43:28 10° SSW daylight
30 Apr - 19:26:21 10° SSW 19:31:33 67° ESE 19:36:13 10° NNE visible
01 May - 06:19:00 10° NE 06:21:42 14° ENE 06:24:30 10° ESE daylight
01 May - 07:59:20 10° NW 08:04:30 43° WSW 08:10:09 10° S daylight
01 May - 18:52:42 10° S 18:57:32 38° ESE 19:01:55 10° NE visible
01 May - 20:39:14 10° W 20:40:16 11° WNW 20:41:19 10° WNW visible
02 May - 07:25:05 10° NNW 07:30:30 71° WSW 07:36:29 10° SSE daylight
02 May - 18:19:30 10° SSE 18:23:29 22° ESE 18:27:12 10° ENE visible
02 May - 20:02:49 10° WSW 20:06:22 19° WNW 20:09:42 10° NNW visible
03 May - 06:51:07 10° NNW 06:56:32 72° ENE 07:02:30 10° SSE daylight
03 May - 17:47:09 10° SE 17:49:24 13° ESE 17:51:34 10° E daylight
03 May - 19:27:53 10° SW 19:32:27 33° WNW 19:36:39 10° N visible
04 May - 06:17:27 10° N 06:22:35 43° ENE 06:28:12 10° SE daylight
04 May - 08:02:44 10° W 08:05:44 14° WSW 08:08:52 10° SW daylight
04 May - 18:53:29 10° SSW 18:58:32 60° WNW 19:03:07 10° N visible
